Regional Weather Roundup
Issued by NWS

Home | Current Version | Previous Version | Text Only | Print | Product List | Glossary On
Versions: 1 2 3 4 5 6 7 8 9 10 11 12 13 14 15 16 17 18 19 20 21 22 23 24 25 26 27 28 29 30 31 32 33 34 35 36 37 38 39 40 41 42 43 44 45 46 47 48 49 50
258
ASUS43 KDTX 201010
RWRMI
MICHIGAN HOURLY REGIONAL WEATHER ROUNDUP
NATIONAL WEATHER SERVICE DETROIT/PONTIAC MI
500 AM EST FRI JAN 20 2017

NOTE: "FAIR" INDICATES FEW OR NO CLOUDS BELOW 12,000 FEET WITH NO
SIGNIFICANT WEATHER AND/OR OBSTRUCTION TO VISIBILITY.

MIZ047>049-052>055-059>063-066>070-074>076-081>083-201100-
SOUTHEAST LOWER MICHIGAN

CITY           SKY/WX    TMP DP  RH WIND       PRES   REMARKS
ADRIAN         MIX PCPN  32  32 100 E9        29.70F FOG     WCI  24
ALMA           CLOUDY    32  32  99 E9        29.75F FOG     WCI  25
ANN ARBOR      CLOUDY    33  33 100 NE9       29.71F FOG     WCI  25
BAD AXE        FOG       31  31 100 E5        29.78F VSB 3/4 WCI  26
CARO           CLOUDY    31  31 100 SE6       29.76S FOG     WCI  26
DETROIT CITY   CLOUDY    32  32 100 E9        29.76F FOG     WCI  24
DETROIT        CLOUDY    34  33  96 NE9       29.74F FOG     WCI  27
FLINT          CLOUDY    33  32  96 E6        29.76F WCI  28
GROSSE ILE     CLOUDY    32  32  99 E8        29.73F FOG     WCI  25
HILLSDALE      MIX PCPN  32  32 100 E10       29.65F WCI  24
HOWELL         LGT RAIN  33  32  97 E7        29.71F WCI  27

CITY           SKY/WX    TMP DP  RH WIND       PRES   REMARKS
JACKSON        LGT RAIN  35  33  92 E9        29.67F FOG     WCI  28
LAMBERTVILLE   LGT SNOW  34  33  95 E7        29.70F WCI  28
LANSING        LGT RAIN  34  32  92 E8        29.71F FOG     WCI  27
LAPEER         CLOUDY    32  32 100 SE3       29.77S FOG
MASON          LGT RAIN  34  34  99 E6        29.70F WCI  29
MONROE         CLOUDY    33  33 100 E9        29.71F FOG     WCI  26
MT. CLEMENS    CLOUDY    32  32 100 E8        29.75F FOG     WCI  25
PONTIAC        FOG       31  29  92 E7        29.73F VSB 1/2 WCI  24
PORT HOPE        N/A     32  32 100 SE9       29.78F WCI  24
PORT HURON     FOG       32  32 100 E6        29.78F VSB 3/4 WCI  26
TRI CITIES     FOG       31  31 100 E7        29.77F VSB 1/4 WCI  24
MIDLAND        FOG       32  31  96 E8        29.76S VSB 1/2 WCI  25
TROY           FOG       32  32  98 NE8       29.77F VSB 1   WCI  25
SAGINAW HB     FOG       32  30  93 E6        29.76F VSB 1   WCI  26
$$
MIZ043>046-050>051-056>058-064>065-071>073-077>080-201100-
SOUTHWEST LOWER MICHIGAN

CITY           SKY/WX    TMP DP  RH WIND       PRES   REMARKS
BATTLE CREEK   LGT RAIN  36  35  96 E7        29.66F FOG     WCI  30
BENTON HARBOR  RAIN      39  36  89 NE5       29.65F FOG
BIG RAPIDS     CLOUDY    33  32  94 SE5       29.70F FOG     WCI  29
COLDWATER      MIX PCPN  36  36 100 E10       29.65F WCI  29
FREMONT        RAIN      34  34  99 CALM      29.71S
HOLLAND        RAIN      36  34  92 NE6       29.69F WCI  31
GRAND RAPIDS   LGT RAIN  35  32  88 E9        29.69F FOG     WCI  28
IONIA          LGT SNOW  32  32  99 NE7       29.69F VSB 3/4 WCI  26
KALAMAZOO      LGT RAIN  38  35  89 E7        29.66S FOG     WCI  33
LUDINGTON      CLOUDY    34  34 100 CALM      29.70F FOG
MARSHALL       LGT RAIN  35  35  98 E6        29.66F WCI  30
MOUNT PLEASANT CLOUDY    32  32  99 E6        29.74S FOG     WCI  26
MUSKEGON       LGT RAIN  36  35  96 NE6       29.71F FOG     WCI  31
SOUTH HAVEN    LGT RAIN  37  37  97 CALM      29.67S
$$
MIZ016>042-201100-
NORTHERN LOWER MICHIGAN

CITY           SKY/WX    TMP DP  RH WIND       PRES   REMARKS
ALPENA         FOG       32  31  96 SE7       29.81S VSB 1/4 WCI  26
BEAVER ISLAND  FOG       33  33 100 E7        29.76F VSB 1/2 WCI  26
BELLAIRE       PTCLDY    29  29 100 CALM      29.75F FOG
CADILLAC       CLOUDY    32  31  96 E7        29.70F FOG     WCI  26
CHARLEVOIX     FOG       30  30 100 E3        29.78F VSB 1/2
FRANKFORT      CLOUDY    34  33  96 CALM      29.72F FOG
GAYLORD        FOG       32  29  88 CALM      29.74F VSB 1/4
GRAYLING       FOG       32  32 100 E6        29.75F VSB 1/2 WCI  26
HARBOR SPRINGS FOG       31  31 100 E8        29.76F VSB 1/4 WCI  24
HOUGHTON LAKE  CLOUDY    31  30  96 NE9       29.73F FOG     WCI  23
MANISTEE       MOCLDY    35  33  92 E3        29.71F
OSCODA         FOG       33  32  98 E6        29.80F VSB 1/4 WCI  27
PELLSTON       FOG       32  31  96 E6        29.78F VSB 1/4 WCI  26
ROGERS CITY    FOG       32  32  99 SE5       29.81F VSB 1/2 WCI  27
TRAVERSE CITY  CLOUDY    34  32  92 NE3       29.72F FOG
$$
MIZ007>008-015-201100-
EASTERN UPPER MICHIGAN

CITY           SKY/WX    TMP DP  RH WIND       PRES   REMARKS
KINROSS        LGT RAIN  33  32  96 E6        29.79F VSB 1/2 WCI  28
MACKINAC ISLAN FOG       32  32 100 E8        29.78F VSB 1   WCI  25
NEWBERRY       FOG       32  31  97 SE5       29.76F VSB 1/2 WCI  27
S. S. MARIE    FOG       34  32  92 E6        29.80F VSB 3/4 WCI  29
MUNISING         N/A     33  32  96 S10       29.73F WCI  25
$$
MIZ004>006-011>014-085-201100-
CENTRAL UPPER MICHIGAN

CITY           SKY/WX    TMP DP  RH WIND       PRES   REMARKS
MANISTIQUE     FOG       32  32  99 SE3       29.75F VSB 1/2
ESCANABA       FOG       32  31  96 CALM      29.75F VSB 1/4
SAWYER-GWINN   FOG       28  28  98 SW7       29.72F VSB 1/2 WCI  21
$$
MIZ001>003-009>011-084-201100-
WESTERN UPPER MICHIGAN

CITY           SKY/WX    TMP DP  RH WIND       PRES   REMARKS
IRON MOUNTAIN  FOG       30  28  92 CALM      29.71F VSB 1/2
HOUGHTON       CLOUDY    28  27  96 CALM      29.70S FOG
COPPER HARBOR    N/A     32  30  92 W6        29.70F WCI  26
IRONWOOD       MOCLDY    30  27  88 CALM      29.69F
$$

ABBREVIATIONS USED IN REMARKS
   TC - TEMPERATURE IN CELSIUS
  WCI - WIND CHILL INDEX
   HX - HEAT INDEX
  VSB - VISIBILITY





USA.gov is the U.S. government's official web portal to all federal, state and local government web resources and services.